{"data":{"norad_id":60410,"epoch":"2026-05-25T02:08:21.881760Z","epoch_age_seconds":67038,"freshness":"FRESH","line1":"1 60410U 24141N   26145.08914215  .00000942  00000+0  12632-4 0  9993","line2":"2 60410  53.1588  69.5359 0001087  84.6139 275.5003 15.69711438103749","mean_motion":15.69711438,"eccentricity":0.0001087,"inclination_deg":53.1588,"raan_deg":69.5359,"arg_perigee_deg":84.6139,"mean_anomaly_deg":275.5003,"bstar":1.2632e-5,"rev_number":10374,"period_min":91.736606177422,"perigee_km":358.99023007499,"apogee_km":360.45504075973,"semimajor_km":6737.8596354174,"source":"CELESTRAK","updated_at":"2026-05-25T13:38:19.269825Z"}}